Lubbock, TX

2:06 AM CDT on May 24, 2018 (GMT -0500)
Lubbock International

Weather History for KLBB - September, 2012

Change the Weather History Date:

Sunday, September 16, 2012

  Actual Average Record
Temperature  
Mean Temperature 66 °F 72 °F  
Max Temperature 81 °F 84 °F 100 °F (1965)
Min Temperature 51 °F 59 °F 42 °F (1951)
Degree Days  
Heating Degree Days 0 1  
Month to date heating degree days 17 3  
Since 1 July heating degree days 17 3  
Cooling Degree Days 1 7  
Month to date cooling degree days 162 148  
Year to date cooling degree days 2144 1674  
Growing Degree Days 16 (Base 50)    
Moisture  
Dew Point 51 °F    
Average Humidity 64    
Maximum Humidity 100    
Minimum Humidity 28    
Precipitation  
Precipitation 0.00 in 0.09 in 1.89 in (1919)
Month to date precipitation 1.19 1.38  
Year to date precipitation 9.61 14.45  
Snow  
Snow 0.00 in 0.00 in 0.00 in (2002)
Month to date snowfall 0.0 0.0  
Since 1 July snowfall 0.0 0.0  
Since 1 September snowfall 0.0 0.0  
Snow Depth 0.00 in    
Sea Level Pressure  
Sea Level Pressure 30.01 in    
Wind  
Wind Speed 6 mph (SW)    
Max Wind Speed 10 mph    
Max Gust Speed 25 mph    
Visibility 7 miles    
Events Fog    
T = Trace of Precipitation, MM = Missing Value Source: NWS Daily Summary

Daily Weather History Graph

Daily Weather History Graph

Search for Another Location

Airport or City:

Astronomy

Sep. 16, 2012 Rise Set
Actual Time 7:31 AM CDT 7:51 PM CDT
Civil Twilight 7:06 AM CDT 8:16 PM CDT
Nautical Twilight 6:37 AM CDT 8:45 PM CDT
Astronomical Twilight 6:07 AM CDT 9:15 PM CDT
Moon 8:08 AM CDT (9/16) 8:04 PM CDT (9/16)
Length of Visible Light 13h 09m
Length of Day
12h 19m
New Moon, 0% of the Moon is Illuminated
Sep 16
New Moon
Sep 22
First Quarter
Sep 29
Full
Oct 8
Last Quarter
Oct 15
New

Hourly Weather History & Observations

Time (CDT) Temp. Dew Point Humidity Pressure Visibility Wind Dir Wind Speed Gust Speed Precip Events Conditions
12:53 AM 55.0 °F 52.0 °F 89% 30.09 in 10.0 mi SSW 4.6 mph - N/A   Partly Cloudy
1:53 AM 55.0 °F 52.0 °F 89% 30.07 in 9.0 mi SW 5.8 mph - N/A   Partly Cloudy
2:53 AM 54.0 °F 52.0 °F 93% 30.06 in 7.0 mi SW 5.8 mph - N/A   Partly Cloudy
3:53 AM 55.0 °F 53.1 °F 93% 30.04 in 6.0 mi SW 6.9 mph - N/A   Partly Cloudy
4:53 AM 55.0 °F 53.1 °F 93% 30.03 in 6.0 mi WSW 8.1 mph - N/A   Partly Cloudy
5:53 AM 53.1 °F 52.0 °F 96% 30.04 in 4.0 mi West 6.9 mph - N/A   Clear
6:12 AM 51.8 °F 51.8 °F 100% 30.12 in 1.8 mi WSW 8.1 mph - N/A   Partly Cloudy
6:15 AM 51.8 °F 51.8 °F 100% 30.12 in 0.5 mi WSW 6.9 mph - N/A   Mist
6:25 AM 51.8 °F 51.8 °F 100% 30.12 in 0.2 mi WSW 5.8 mph - N/A Fog Fog
6:53 AM 52.0 °F 51.1 °F 97% 30.04 in 0.2 mi West 5.8 mph - N/A Fog Fog
7:53 AM 51.1 °F 51.1 °F 100% 30.05 in 0.2 mi West 4.6 mph - N/A Fog Fog
8:16 AM 51.8 °F 51.8 °F 100% 30.13 in 1.0 mi WSW 4.6 mph - N/A Fog Scattered Clouds
8:40 AM 53.6 °F 53.6 °F 100% 30.12 in 2.5 mi West 5.8 mph - N/A Fog Scattered Clouds
8:46 AM 53.6 °F 53.6 °F 100% 30.12 in 2.5 mi SW 4.6 mph - N/A Fog Scattered Clouds
8:53 AM 54.0 °F 54.0 °F 100% 30.05 in 4.0 mi WSW 5.8 mph - N/A   Scattered Clouds
9:53 AM 61.0 °F 55.9 °F 83% 30.04 in 7.0 mi West 5.8 mph - N/A   Partly Cloudy
10:53 AM 66.0 °F 55.0 °F 68% 30.04 in 10.0 mi West 8.1 mph - N/A   Partly Cloudy
11:53 AM 71.1 °F 55.0 °F 57% 30.01 in 10.0 mi West 8.1 mph - N/A   Partly Cloudy
12:53 PM 73.0 °F 48.9 °F 42% 29.99 in 10.0 mi Variable 3.5 mph - N/A   Partly Cloudy
1:53 PM 75.9 °F 48.9 °F 38% 29.96 in 10.0 mi Variable 4.6 mph - N/A   Scattered Clouds
2:53 PM 78.8 °F 44.6 °F 30% 30.05 in 10.0 mi WNW 3.5 mph - N/A   Scattered Clouds
3:53 PM 80.1 °F 46.0 °F 30% 29.91 in 10.0 mi Calm Calm - N/A   Scattered Clouds
4:53 PM 80.1 °F 45.0 °F 29% 29.88 in 10.0 mi South 4.6 mph - N/A   Scattered Clouds
5:53 PM 80.1 °F 44.1 °F 28% 29.88 in 10.0 mi Variable 4.6 mph - N/A   Scattered Clouds
6:53 PM 78.1 °F 46.0 °F 32% 29.88 in 10.0 mi SE 6.9 mph - N/A   Partly Cloudy
7:53 PM 73.0 °F 48.9 °F 42% 29.90 in 10.0 mi SE 4.6 mph - N/A   Partly Cloudy
8:53 PM 69.1 °F 48.9 °F 49% 29.91 in 10.0 mi SE 3.5 mph - N/A   Partly Cloudy
9:53 PM 66.9 °F 51.1 °F 57% 29.91 in 10.0 mi South 6.9 mph - N/A   Clear
10:53 PM 64.0 °F 53.1 °F 67% 29.91 in 10.0 mi SSW 5.8 mph - N/A   Clear
11:53 PM 64.0 °F 52.0 °F 65% 29.89 in 10.0 mi SSW 5.8 mph - N/A   Clear